When you browse on this site, cookies collect data to enhance your experience and personalize the content and advertising you see.
Visit our Privacy Policy to learn more. By continuing to use the site, you agree to this use of cookies and data.
  • In United Kingdom
  • List of Countries
  • For 7 days
  • Water Temperature
  • Weather Map
  • Weather Widgets
  • user-avatar
    Login

    Hourly Weather Lebach

    Today, 29 January, Wednesday

    Time Temperature Precipitation Wind Pressure Humidity
    00:00 +1°C° 0 mm 6 mps 730 mmHg 89%
    01:00 +1°C° 0.1 mm 6 mps 730 mmHg 88%
    02:00 +1°C° 0.1 mm 6 mps 731 mmHg 87%
    03:00 +1°C° 0.1 mm 6 mps 732 mmHg 86%
    04:00 0°C° 0 mm 5 mps 732 mmHg 86%
    05:00 0°C° 0 mm 5 mps 733 mmHg 87%
    06:00 0°C° 0 mm 4 mps 733 mmHg 88%
    07:00 0°C° 0 mm 5 mps 734 mmHg 90%
    08:00 0°C° 0 mm 5 mps 734 mmHg 91%
    09:00 +1°C° 0 mm 6 mps 734 mmHg 93%
    10:00 +1°C° 0.2 mm 6 mps 734 mmHg 89%
    11:00 +2°C° 0.2 mm 6 mps 735 mmHg 86%
    12:00 +2°C° 0.2 mm 6 mps 735 mmHg 82%
    13:00 +2°C° 0.1 mm 6 mps 735 mmHg 81%
    14:00 +3°C° 0.1 mm 5 mps 736 mmHg 79%
    15:00 +3°C° 0.1 mm 5 mps 736 mmHg 77%
    16:00 +2°C° 0 mm 5 mps 736 mmHg 81%
    17:00 +3°C° 0 mm 4 mps 737 mmHg 84%
    18:00 +3°C° 0 mm 4 mps 738 mmHg 88%
    19:00 +3°C° 0 mm 4 mps 738 mmHg 89%
    20:00 +1°C° 0 mm 4 mps 738 mmHg 90%
    21:00 +1°C° 0 mm 4 mps 738 mmHg 91%
    22:00 +1°C° 0 mm 4 mps 738 mmHg 91%
    23:00 +1°C° 0 mm 4 mps 739 mmHg 91%

    Tomorrow, 30 January, Thursday

    Time Temperature Precipitation Wind Pressure Humidity
    00:00 +3°C° 0 mm 4 mps 739 mmHg 92%
    01:00 +3°C° 0 mm 4 mps 738 mmHg 92%
    02:00 +1°C° 0 mm 4 mps 738 mmHg 93%
    03:00 +1°C° 0 mm 4 mps 738 mmHg 94%
    04:00 +3°C° 0 mm 4 mps 738 mmHg 94%
    05:00 +3°C° 0 mm 4 mps 738 mmHg 94%
    06:00 +3°C° 0 mm 4 mps 737 mmHg 94%
    07:00 +3°C° 0 mm 4 mps 737 mmHg 92%
    08:00 +4°C° 0 mm 4 mps 737 mmHg 90%
    09:00 +4°C° 0 mm 4 mps 737 mmHg 88%
    10:00 +5°C° 0 mm 4 mps 736 mmHg 83%
    11:00 +6°C° 0 mm 4 mps 736 mmHg 78%
    12:00 +7°C° 0 mm 4 mps 735 mmHg 73%
    13:00 +6°C° 0.4 mm 4 mps 735 mmHg 79%
    14:00 +6°C° 0.4 mm 4 mps 734 mmHg 85%
    15:00 +6°C° 0.4 mm 4 mps 733 mmHg 91%
    16:00 +6°C° 0.5 mm 5 mps 733 mmHg 92%
    17:00 +7°C° 0.5 mm 5 mps 733 mmHg 94%
    18:00 +7°C° 0.5 mm 6 mps 733 mmHg 95%
    19:00 +8°C° 0.3 mm 6 mps 733 mmHg 95%
    20:00 +9°C° 0.3 mm 6 mps 733 mmHg 94%
    21:00 +9°C° 0.3 mm 6 mps 733 mmHg 94%
    22:00 +10°C° 0.1 mm 6 mps 733 mmHg 94%
    23:00 +10°C° 0.1 mm 6 mps 734 mmHg 95%

    Day after tomorrow, 31 January, Friday

    Time Temperature Precipitation Wind Pressure Humidity
    00:00 +10°C° 0.1 mm 7 mps 734 mmHg 95%
    01:00 +10°C° 0.2 mm 6 mps 734 mmHg 94%
    02:00 +10°C° 0.2 mm 6 mps 734 mmHg 94%
    03:00 +10°C° 0.2 mm 6 mps 734 mmHg 94%
    04:00 +10°C° 0.1 mm 6 mps 735 mmHg 94%
    05:00 +10°C° 0.1 mm 5 mps 735 mmHg 95%
    06:00 +10°C° 0.1 mm 5 mps 735 mmHg 95%
    07:00 +10°C° 0.1 mm 5 mps 736 mmHg 95%
    08:00 +10°C° 0.1 mm 5 mps 736 mmHg 95%
    09:00 +10°C° 0.1 mm 5 mps 737 mmHg 94%
    10:00 +10°C° 0 mm 5 mps 737 mmHg 92%
    11:00 +10°C° 0 mm 5 mps 737 mmHg 91%
    12:00 +12°C° 0 mm 4 mps 737 mmHg 89%
    13:00 +11°C° 0 mm 4 mps 737 mmHg 90%
    14:00 +11°C° 0 mm 4 mps 737 mmHg 92%
    15:00 +11°C° 0 mm 4 mps 737 mmHg 93%
    16:00 +11°C° 0 mm 4 mps 737 mmHg 93%
    17:00 +11°C° 0 mm 4 mps 737 mmHg 92%
    18:00 +11°C° 0 mm 4 mps 737 mmHg 92%
    19:00 +10°C° 0.1 mm 4 mps 736 mmHg 92%
    20:00 +10°C° 0.1 mm 4 mps 736 mmHg 92%
    21:00 +9°C° 0.1 mm 5 mps 736 mmHg 92%
    22:00 +9°C° 0 mm 5 mps 736 mmHg 92%
    23:00 +9°C° 0 mm 5 mps 736 mmHg 92%

    1 February, Saturday

    Time Temperature Precipitation Wind Pressure Humidity
    00:00 +9°C° 0 mm 5 mps 735 mmHg 93%
    01:00 +9°C° 0.1 mm 5 mps 735 mmHg 92%
    02:00 +9°C° 0.1 mm 5 mps 734 mmHg 92%
    03:00 +9°C° 0.1 mm 6 mps 734 mmHg 92%
    04:00 +9°C° 1 mm 6 mps 734 mmHg 92%
    05:00 +10°C° 1 mm 6 mps 733 mmHg 92%
    06:00 +10°C° 1 mm 7 mps 733 mmHg 92%
    07:00 +10°C° 1 mm 7 mps 733 mmHg 93%
    08:00 +10°C° 1 mm 7 mps 732 mmHg 93%
    09:00 +10°C° 1 mm 7 mps 732 mmHg 93%
    10:00 +10°C° 2 mm 7 mps 732 mmHg 92%
    11:00 +10°C° 2 mm 7 mps 732 mmHg 90%
    12:00 +11°C° 2 mm 7 mps 732 mmHg 88%
    13:00 +10°C° 1.6 mm 7 mps 732 mmHg 86%
    14:00 +9°C° 1.6 mm 7 mps 733 mmHg 85%
    15:00 +8°C° 1.6 mm 7 mps 733 mmHg 84%
    16:00 +6°C° 0.1 mm 7 mps 735 mmHg 81%
    17:00 +5°C° 0.1 mm 6 mps 736 mmHg 78%
    18:00 +5°C° 0.1 mm 6 mps 737 mmHg 75%
    19:00 +4°C° 0 mm 6 mps 738 mmHg 76%
    20:00 +4°C° 0 mm 6 mps 739 mmHg 76%
    21:00 +4°C° 0 mm 6 mps 739 mmHg 77%
    22:00 +3°C° 0 mm 6 mps 740 mmHg 78%
    23:00 +3°C° 0 mm 6 mps 740 mmHg 80%

    2 February, Sunday

    Time Temperature Precipitation Wind Pressure Humidity
    00:00 +3°C° 0 mm 6 mps 741 mmHg 82%
    01:00 +3°C° 0 mm 6 mps 741 mmHg 82%
    02:00 +3°C° 0 mm 5 mps 741 mmHg 83%
    03:00 +2°C° 0 mm 5 mps 742 mmHg 83%
    04:00 +2°C° 0 mm 5 mps 742 mmHg 85%
    05:00 +2°C° 0 mm 5 mps 742 mmHg 87%
    06:00 +3°C° 0 mm 4 mps 742 mmHg 88%
    07:00 +3°C° 0 mm 5 mps 742 mmHg 87%
    08:00 +3°C° 0 mm 5 mps 742 mmHg 86%
    09:00 +3°C° 0 mm 5 mps 742 mmHg 85%
    10:00 +3°C° 0.5 mm 5 mps 742 mmHg 87%
    11:00 +3°C° 0.5 mm 5 mps 742 mmHg 88%
    12:00 +3°C° 0.5 mm 5 mps 742 mmHg 90%
    13:00 +3°C° 1 mm 5 mps 741 mmHg 91%
    14:00 +5°C° 1 mm 5 mps 741 mmHg 91%
    15:00 +5°C° 1 mm 5 mps 740 mmHg 92%
    16:00 +5°C° 0.3 mm 5 mps 741 mmHg 93%
    17:00 +6°C° 0.3 mm 5 mps 741 mmHg 95%
    18:00 +7°C° 0.3 mm 5 mps 741 mmHg 96%
    19:00 +8°C° 0.2 mm 5 mps 741 mmHg 96%
    20:00 +8°C° 0.2 mm 5 mps 742 mmHg 96%
    21:00 +9°C° 0.2 mm 5 mps 742 mmHg 96%
    22:00 +9°C° 0.5 mm 5 mps 742 mmHg 96%
    23:00 +9°C° 0.5 mm 5 mps 742 mmHg 96%

    3 February, Monday

    Time Temperature Precipitation Wind Pressure Humidity
    00:00 +10°C° 0.5 mm 5 mps 742 mmHg 95%
    01:00 +10°C° 0.1 mm 5 mps 742 mmHg 94%
    02:00 +9°C° 0.1 mm 5 mps 741 mmHg 94%
    03:00 +9°C° 0.1 mm 5 mps 741 mmHg 93%
    04:00 +9°C° 0 mm 5 mps 741 mmHg 93%
    05:00 +9°C° 0 mm 5 mps 741 mmHg 93%
    06:00 +9°C° 0 mm 5 mps 741 mmHg 93%
    07:00 +9°C° 0 mm 5 mps 741 mmHg 90%
    08:00 +9°C° 0 mm 5 mps 741 mmHg 88%
    09:00 +9°C° 0 mm 5 mps 741 mmHg 86%
    10:00 +12°C° 0 mm 5 mps 741 mmHg 81%
    11:00 +13°C° 0 mm 6 mps 740 mmHg 76%
    12:00 +14°C° 0 mm 7 mps 740 mmHg 72%
    13:00 +14°C° 0 mm 7 mps 740 mmHg 73%
    14:00 +14°C° 0 mm 6 mps 739 mmHg 75%
    15:00 +13°C° 0 mm 6 mps 739 mmHg 76%
    16:00 +13°C° 0 mm 6 mps 738 mmHg 78%
    17:00 +13°C° 0 mm 6 mps 738 mmHg 80%
    18:00 +11°C° 0 mm 6 mps 738 mmHg 82%
    19:00 +11°C° 0 mm 7 mps 738 mmHg 81%
    20:00 +11°C° 0 mm 7 mps 737 mmHg 81%
    21:00 +11°C° 0 mm 7 mps 737 mmHg 80%
    22:00 +11°C° 0.3 mm 7 mps 737 mmHg 80%
    23:00 +10°C° 0.3 mm 7 mps 736 mmHg 81%
    Show more